Location: Cluj-Napoca
(46.7712°N, 23.6236°E)
Time: 07:06:53
(UTC+02:00)

ISS - Pass Details

Date: 24 February 2020
Orbit: 415 x 423 km, 51.6° (Epoch: 27 February)

Event Time Altitude Azimuth Distance (km) Brightness Sun altitude
Exits shadow 06:09:44 10° 223° (SW) 1,507 -1.3 -12.0°
Reaches altitude 10° 06:09:46 10° 223° (SW) 1,496 -1.3 -12.0°
Maximum altitude 06:13:02 50° 147° (SSE) 545 -3.0 -11.4°
Drops below altitude 10° 06:16:19 10° 71° (ENE) 1,508 0.3 -10.9°
Sets 06:18:28 0° 66° (ENE) 2,376 1.3 -10.5°
